NKS926 KDTW-KLGA

Flight info

Callsign NKS926
Flight time 1h 3m
Altitude 33000
Route PAVYL3 ESSBE SPYDY Q186 WEVEL ETG MIP4
Aircraft A21N/M-SDE2E3FGHIJ1RWXY/LB1

Departure

Time 2026-05-07 13:59
Airport Detroit Metropolitan Wayne County Airport (KDTW)

Arrival

Time 2026-05-07 15:03
Airport LaGuardia Airport (KLGA)
Time Latitude Longitude Altitude Speed Heading
2026-05-07 13:27 42.22521 -83.34966 652 ft 0 kts 108°
2026-05-07 13:47 42.22521 -83.34967 651 ft 1 kts 108°
2026-05-07 13:47 42.22528 -83.34997 651 ft 4 kts 108°
2026-05-07 13:48 42.22535 -83.35025 651 ft 4 kts 125°
2026-05-07 13:48 42.22550 -83.35036 651 ft 4 kts 201°
2026-05-07 13:48 42.22573 -83.35020 652 ft 4 kts 208°
2026-05-07 13:48 42.22576 -83.35017 653 ft 1 kts 208°
2026-05-07 13:51 42.22568 -83.35024 654 ft 4 kts 208°
2026-05-07 13:51 42.22527 -83.35065 654 ft 11 kts 237°
2026-05-07 13:52 42.22492 -83.35179 653 ft 16 kts 216°
2026-05-07 13:52 42.22388 -83.35259 652 ft 18 kts 209°
2026-05-07 13:52 42.22282 -83.35352 652 ft 18 kts 214°
2026-05-07 13:52 42.22168 -83.35438 651 ft 19 kts 209°
2026-05-07 13:53 42.22050 -83.35527 651 ft 20 kts 209°
2026-05-07 13:53 42.21954 -83.35592 652 ft 11 kts 185°
2026-05-07 13:53 42.21884 -83.35553 651 ft 12 kts 158°
2026-05-07 13:53 42.21824 -83.35479 651 ft 12 kts 107°
2026-05-07 13:54 42.21824 -83.35359 652 ft 13 kts 87°
2026-05-07 13:54 42.21826 -83.35233 651 ft 14 kts 90°
2026-05-07 13:54 42.21827 -83.35094 652 ft 15 kts 88°
2026-05-07 13:54 42.21831 -83.34944 652 ft 17 kts 88°
2026-05-07 13:55 42.21834 -83.34780 652 ft 18 kts 89°
2026-05-07 13:55 42.21836 -83.34604 652 ft 19 kts 89°
2026-05-07 13:55 42.21871 -83.34489 652 ft 13 kts 31°
2026-05-07 13:55 42.21954 -83.34430 651 ft 14 kts 27°
2026-05-07 13:56 42.22046 -83.34364 651 ft 16 kts 28°
2026-05-07 13:56 42.22147 -83.34287 653 ft 17 kts 30°
2026-05-07 13:56 42.22255 -83.34205 652 ft 19 kts 30°
2026-05-07 13:56 42.22373 -83.34120 651 ft 20 kts 32°
2026-05-07 13:57 42.22498 -83.34028 653 ft 21 kts 29°
2026-05-07 13:57 42.22629 -83.33929 651 ft 18 kts 30°
2026-05-07 13:57 42.22700 -83.33876 652 ft 12 kts 28°
2026-05-07 13:57 42.22781 -83.33819 653 ft 14 kts 27°
2026-05-07 13:58 42.22848 -83.33772 651 ft 7 kts 27°
2026-05-07 13:58 42.22858 -83.33706 652 ft 9 kts 117°
2026-05-07 13:58 42.22828 -83.33638 650 ft 8 kts 135°
2026-05-07 13:58 42.22769 -83.33660 651 ft 14 kts 209°
2026-05-07 13:59 42.22470 -83.33882 653 ft 87 kts 208°
2026-05-07 13:59 42.21726 -83.34433 654 ft 152 kts 210°
2026-05-07 13:59 42.20755 -83.35116 1122 ft 158 kts 208°
2026-05-07 13:59 42.19681 -83.35500 1779 ft 165 kts 186°
2026-05-07 14:00 42.18518 -83.35796 2194 ft 178 kts 207°
2026-05-07 14:00 42.17277 -83.36298 2637 ft 199 kts 186°
2026-05-07 14:00 42.15842 -83.36233 3232 ft 213 kts 180°
2026-05-07 14:00 42.14288 -83.36022 3653 ft 240 kts 166°
2026-05-07 14:01 42.12818 -83.34755 4103 ft 266 kts 130°
2026-05-07 14:01 42.12042 -83.32469 4857 ft 275 kts 97°
2026-05-07 14:01 42.12188 -83.29905 5725 ft 277 kts 77°
2026-05-07 14:01 42.12576 -83.27349 6609 ft 281 kts 79°
2026-05-07 14:02 42.12867 -83.24719 7415 ft 286 kts 82°
2026-05-07 14:02 42.13061 -83.22032 8206 ft 291 kts 84°
2026-05-07 14:02 42.13191 -83.19280 8972 ft 297 kts 86°
2026-05-07 14:02 42.13287 -83.16479 9754 ft 303 kts 86°
2026-05-07 14:03 42.13367 -83.13600 10343 ft 314 kts 87°
2026-05-07 14:03 42.13442 -83.10581 10698 ft 333 kts 87°
2026-05-07 14:03 42.13514 -83.07370 11022 ft 352 kts 87°
2026-05-07 14:03 42.13588 -83.03988 11321 ft 371 kts 88°
2026-05-07 14:04 42.13660 -83.00433 11702 ft 386 kts 88°
2026-05-07 14:04 42.13732 -82.96792 12348 ft 393 kts 88°
2026-05-07 14:04 42.13808 -82.93140 13021 ft 398 kts 88°
2026-05-07 14:04 42.13881 -82.89381 13691 ft 404 kts 88°
2026-05-07 14:05 42.13955 -82.85566 14293 ft 410 kts 88°
2026-05-07 14:05 42.14026 -82.81644 14920 ft 415 kts 88°
2026-05-07 14:05 42.14100 -82.77739 15548 ft 420 kts 88°
2026-05-07 14:05 42.14176 -82.73827 16162 ft 425 kts 88°
2026-05-07 14:06 42.14249 -82.69795 16786 ft 429 kts 88°
2026-05-07 14:06 42.14317 -82.65737 17402 ft 434 kts 89°
2026-05-07 14:06 42.14367 -82.61655 18005 ft 439 kts 90°
2026-05-07 14:06 42.14358 -82.57574 18550 ft 443 kts 90°
2026-05-07 14:07 42.14334 -82.53402 19053 ft 448 kts 91°
2026-05-07 14:07 42.14316 -82.50551 19393 ft 451 kts 91°
2026-05-07 14:07 42.14281 -82.46315 19899 ft 455 kts 92°
2026-05-07 14:07 42.13784 -82.40692 20546 ft 459 kts 102°
2026-05-07 14:08 42.13234 -82.36420 20997 ft 465 kts 103°
2026-05-07 14:08 42.12684 -82.32105 21465 ft 470 kts 103°
2026-05-07 14:08 42.12314 -82.29172 21780 ft 473 kts 103°
2026-05-07 14:08 42.11761 -82.24780 22243 ft 478 kts 103°
2026-05-07 14:09 42.11200 -82.20340 22703 ft 482 kts 103°
2026-05-07 14:09 42.10633 -82.15868 23157 ft 486 kts 103°
2026-05-07 14:09 42.10060 -82.11360 23596 ft 491 kts 104°
2026-05-07 14:09 42.09479 -82.06814 23953 ft 495 kts 104°
2026-05-07 14:10 42.08890 -82.02231 24313 ft 499 kts 104°
2026-05-07 14:10 42.08300 -81.97626 24667 ft 502 kts 104°
2026-05-07 14:10 42.07511 -81.91452 25085 ft 507 kts 104°
2026-05-07 14:10 42.07103 -81.88284 25290 ft 510 kts 104°
2026-05-07 14:11 42.06495 -81.83576 25591 ft 513 kts 104°
2026-05-07 14:11 42.05837 -81.78839 25885 ft 514 kts 108°
2026-05-07 14:11 42.04888 -81.74209 26159 ft 515 kts 112°
2026-05-07 14:11 42.03882 -81.69583 26445 ft 518 kts 112°
2026-05-07 14:12 42.02872 -81.64920 26732 ft 521 kts 112°
2026-05-07 14:12 42.01854 -81.60210 27006 ft 525 kts 112°
2026-05-07 14:12 42.00839 -81.55487 27288 ft 528 kts 112°
2026-05-07 14:12 41.99827 -81.50729 27566 ft 531 kts 112°
2026-05-07 14:13 41.98807 -81.45937 27848 ft 534 kts 112°
2026-05-07 14:13 41.97778 -81.41140 28193 ft 535 kts 112°
2026-05-07 14:13 41.96743 -81.36346 28541 ft 535 kts 112°
2026-05-07 14:13 41.95701 -81.31545 28895 ft 536 kts 112°
2026-05-07 14:14 41.94652 -81.26733 29219 ft 536 kts 113°
2026-05-07 14:14 41.93601 -81.21931 29556 ft 537 kts 113°
2026-05-07 14:14 41.92560 -81.17173 29878 ft 537 kts 113°
2026-05-07 14:14 41.91492 -81.12308 30179 ft 538 kts 113°
2026-05-07 14:15 41.90434 -81.07493 30451 ft 538 kts 113°
2026-05-07 14:15 41.89387 -81.02735 30720 ft 538 kts 113°
2026-05-07 14:15 41.88313 -80.97870 30997 ft 538 kts 113°
2026-05-07 14:15 41.87246 -80.93063 31268 ft 537 kts 113°
2026-05-07 14:16 41.86185 -80.88278 31495 ft 537 kts 114°
2026-05-07 14:16 41.85111 -80.83450 31721 ft 538 kts 113°
2026-05-07 14:16 41.84045 -80.78655 31951 ft 538 kts 113°
2026-05-07 14:16 41.82970 -80.73841 32193 ft 538 kts 114°
2026-05-07 14:17 41.81894 -80.69043 32388 ft 538 kts 114°
2026-05-07 14:17 41.80817 -80.64241 32573 ft 539 kts 114°
2026-05-07 14:17 41.79737 -80.59421 32753 ft 541 kts 114°
2026-05-07 14:17 41.78650 -80.54594 32950 ft 541 kts 114°
2026-05-07 14:18 41.77564 -80.49768 33013 ft 540 kts 114°
2026-05-07 14:18 41.75384 -80.40143 33000 ft 539 kts 115°
2026-05-07 14:19 41.73195 -80.30545 32986 ft 539 kts 115°
2026-05-07 14:19 41.70999 -80.20946 32980 ft 539 kts 115°
2026-05-07 14:20 41.68793 -80.11342 32967 ft 541 kts 115°
2026-05-07 14:20 41.66574 -80.01703 32988 ft 542 kts 115°
2026-05-07 14:21 41.64350 -79.92086 32987 ft 542 kts 115°
2026-05-07 14:21 41.62123 -79.82513 32991 ft 542 kts 115°
2026-05-07 14:22 41.59866 -79.72822 32989 ft 544 kts 116°
2026-05-07 14:22 41.57608 -79.63163 32999 ft 545 kts 116°
2026-05-07 14:23 41.55350 -79.53578 32991 ft 545 kts 116°
2026-05-07 14:23 41.53088 -79.44019 32982 ft 544 kts 116°
2026-05-07 14:24 41.50787 -79.34310 32975 ft 547 kts 117°
2026-05-07 14:24 41.48477 -79.24625 32989 ft 547 kts 117°
2026-05-07 14:25 41.46156 -79.14934 32958 ft 551 kts 118°
2026-05-07 14:25 41.43811 -79.05190 32938 ft 552 kts 118°
2026-05-07 14:26 41.41444 -78.95417 32970 ft 556 kts 118°
2026-05-07 14:26 41.39081 -78.85624 32979 ft 556 kts 118°
2026-05-07 14:27 41.36704 -78.75852 32972 ft 555 kts 118°
2026-05-07 14:27 41.34312 -78.66074 32933 ft 557 kts 120°
2026-05-07 14:28 41.31898 -78.56260 32973 ft 558 kts 120°
2026-05-07 14:28 41.29474 -78.46444 32982 ft 558 kts 120°
2026-05-07 14:29 41.27061 -78.36650 32961 ft 556 kts 120°
2026-05-07 14:29 41.24621 -78.26869 32981 ft 557 kts 120°
2026-05-07 14:30 41.22186 -78.17105 32984 ft 558 kts 119°
2026-05-07 14:30 41.21184 -78.12067 32979 ft 571 kts 110°
2026-05-07 14:30 41.20511 -78.06849 32982 ft 574 kts 108°
2026-05-07 14:31 41.19265 -77.96381 32953 ft 573 kts 108°
2026-05-07 14:31 41.17966 -77.85920 32981 ft 575 kts 109°
2026-05-07 14:32 41.16651 -77.75516 32987 ft 576 kts 109°
2026-05-07 14:32 41.15299 -77.64964 32978 ft 576 kts 109°
2026-05-07 14:33 41.13963 -77.54489 32937 ft 577 kts 109°
2026-05-07 14:33 41.12602 -77.44015 32529 ft 578 kts 110°
2026-05-07 14:33 41.11909 -77.38755 32247 ft 580 kts 109°
2026-05-07 14:34 41.11232 -77.33476 31976 ft 581 kts 109°
2026-05-07 14:34 41.10561 -77.28196 31735 ft 579 kts 109°
2026-05-07 14:34 41.09882 -77.22947 31486 ft 578 kts 109°
2026-05-07 14:34 41.09191 -77.17694 31152 ft 579 kts 110°
2026-05-07 14:35 41.08497 -77.12450 30515 ft 577 kts 110°
2026-05-07 14:35 41.07800 -77.07228 29719 ft 574 kts 110°
2026-05-07 14:35 41.07092 -77.02024 28879 ft 571 kts 109°
2026-05-07 14:35 41.06398 -76.96883 28115 ft 564 kts 109°
2026-05-07 14:36 41.05732 -76.91801 27435 ft 557 kts 108°
2026-05-07 14:36 41.05070 -76.86781 26776 ft 549 kts 108°
2026-05-07 14:36 41.04407 -76.81826 26089 ft 542 kts 108°
2026-05-07 14:36 41.03749 -76.76949 25468 ft 535 kts 107°
2026-05-07 14:37 41.03095 -76.72123 24845 ft 528 kts 107°
2026-05-07 14:37 41.01455 -76.62843 23580 ft 507 kts 115°
2026-05-07 14:37 41.00397 -76.58418 22857 ft 500 kts 115°
2026-05-07 14:38 40.99355 -76.54084 22193 ft 492 kts 114°
2026-05-07 14:38 40.98322 -76.49791 21499 ft 485 kts 114°
2026-05-07 14:38 40.97282 -76.45498 20915 ft 501 kts 115°
2026-05-07 14:38 40.96191 -76.41027 20702 ft 522 kts 114°
2026-05-07 14:39 40.95057 -76.36371 20586 ft 541 kts 114°
2026-05-07 14:39 40.93914 -76.31578 20775 ft 541 kts 113°
2026-05-07 14:39 40.92820 -76.26895 19877 ft 531 kts 113°
2026-05-07 14:39 40.91687 -76.22265 18959 ft 523 kts 113°
2026-05-07 14:40 40.90575 -76.17777 18386 ft 504 kts 112°
2026-05-07 14:40 40.89537 -76.13560 18006 ft 474 kts 112°
2026-05-07 14:40 40.88536 -76.09467 17440 ft 452 kts 113°
2026-05-07 14:40 40.87598 -76.05629 16769 ft 437 kts 113°
2026-05-07 14:41 40.86676 -76.01868 16103 ft 424 kts 113°
2026-05-07 14:41 40.85758 -75.98143 15717 ft 428 kts 113°
2026-05-07 14:41 40.84852 -75.94464 15270 ft 414 kts 113°
2026-05-07 14:41 40.83973 -75.90889 14515 ft 407 kts 113°
2026-05-07 14:42 40.83105 -75.87378 13919 ft 400 kts 114°
2026-05-07 14:42 40.82247 -75.83911 13550 ft 395 kts 114°
2026-05-07 14:42 40.81362 -75.80367 13310 ft 419 kts 113°
2026-05-07 14:42 40.80445 -75.76688 13134 ft 421 kts 113°
2026-05-07 14:43 40.79561 -75.73100 12981 ft 403 kts 113°
2026-05-07 14:43 40.78702 -75.69616 12967 ft 396 kts 114°
2026-05-07 14:43 40.77843 -75.66179 12999 ft 395 kts 114°
2026-05-07 14:43 40.76976 -75.62730 13027 ft 396 kts 114°
2026-05-07 14:44 40.76110 -75.59272 13034 ft 396 kts 114°
2026-05-07 14:44 40.75248 -75.55827 13043 ft 396 kts 114°
2026-05-07 14:44 40.74390 -75.52395 12671 ft 394 kts 114°
2026-05-07 14:44 40.73512 -75.48900 11808 ft 398 kts 113°
2026-05-07 14:45 40.72673 -75.45497 11365 ft 392 kts 111°
2026-05-07 14:45 40.71979 -75.42081 11115 ft 379 kts 109°
2026-05-07 14:45 40.71329 -75.38778 10937 ft 372 kts 109°
2026-05-07 14:45 40.70643 -75.35357 10811 ft 395 kts 109°
2026-05-07 14:46 40.69949 -75.31868 10698 ft 388 kts 109°
2026-05-07 14:46 40.69269 -75.28438 10564 ft 386 kts 109°
2026-05-07 14:46 40.68587 -75.25020 10451 ft 385 kts 109°
2026-05-07 14:46 40.67906 -75.21618 10345 ft 385 kts 109°
2026-05-07 14:47 40.67221 -75.18210 10208 ft 384 kts 109°
2026-05-07 14:47 40.66395 -75.14955 10053 ft 363 kts 122°
2026-05-07 14:47 40.65008 -75.12370 9991 ft 332 kts 140°
2026-05-07 14:47 40.63406 -75.10166 10008 ft 345 kts 142°
2026-05-07 14:48 40.61659 -75.07826 10029 ft 363 kts 141°
2026-05-07 14:48 40.59922 -75.05424 10016 ft 364 kts 141°
2026-05-07 14:48 40.58189 -75.02985 10001 ft 364 kts 141°
2026-05-07 14:48 40.56534 -75.00447 10002 ft 370 kts 132°
2026-05-07 14:49 40.55352 -74.97377 10001 ft 382 kts 115°
2026-05-07 14:49 40.54782 -74.95141 10021 ft 383 kts 112°
2026-05-07 14:49 40.53684 -74.90735 10003 ft 382 kts 114°
2026-05-07 14:49 40.53083 -74.88513 9999 ft 382 kts 115°
2026-05-07 14:50 40.52150 -74.85244 10005 ft 381 kts 116°
2026-05-07 14:50 40.51189 -74.81994 10006 ft 381 kts 117°
2026-05-07 14:50 40.50217 -74.78760 10010 ft 381 kts 117°
2026-05-07 14:50 40.49236 -74.75532 10008 ft 381 kts 117°
2026-05-07 14:51 40.48257 -74.72302 10010 ft 381 kts 117°
2026-05-07 14:51 40.47279 -74.69068 10007 ft 382 kts 117°
2026-05-07 14:51 40.46299 -74.65826 10006 ft 381 kts 117°
2026-05-07 14:51 40.45327 -74.62593 10009 ft 381 kts 117°
2026-05-07 14:52 40.44366 -74.59377 9980 ft 374 kts 117°
2026-05-07 14:52 40.43454 -74.56258 9884 ft 358 kts 114°
2026-05-07 14:52 40.43053 -74.53096 9788 ft 348 kts 90°
2026-05-07 14:52 40.43483 -74.50035 9343 ft 340 kts 69°
2026-05-07 14:53 40.44358 -74.47175 8917 ft 335 kts 64°
2026-05-07 14:53 40.45249 -74.44381 8524 ft 331 kts 65°
2026-05-07 14:53 40.46089 -74.41582 8151 ft 326 kts 66°
2026-05-07 14:53 40.46872 -74.38813 7798 ft 321 kts 68°
2026-05-07 14:54 40.47623 -74.36076 7440 ft 316 kts 68°
2026-05-07 14:54 40.48354 -74.33375 7101 ft 313 kts 68°
2026-05-07 14:54 40.49076 -74.30687 6998 ft 308 kts 68°
2026-05-07 14:54 40.49786 -74.28044 6983 ft 307 kts 68°
2026-05-07 14:55 40.50489 -74.25428 7000 ft 307 kts 68°
2026-05-07 14:55 40.51199 -74.22783 7009 ft 307 kts 68°
2026-05-07 14:55 40.51916 -74.20102 7016 ft 307 kts 68°
2026-05-07 14:55 40.52610 -74.17498 6889 ft 304 kts 68°
2026-05-07 14:56 40.53305 -74.14892 6388 ft 301 kts 67°
2026-05-07 14:56 40.53996 -74.12321 5906 ft 294 kts 64°
2026-05-07 14:56 40.55036 -74.10109 5433 ft 278 kts 42°
2026-05-07 14:56 40.56425 -74.08414 5001 ft 268 kts 36°
2026-05-07 14:57 40.57832 -74.06844 4547 ft 262 kts 36°
2026-05-07 14:57 40.59223 -74.05279 4068 ft 258 kts 37°
2026-05-07 14:57 40.60549 -74.03760 3583 ft 254 kts 38°
2026-05-07 14:57 40.61879 -74.02222 3163 ft 249 kts 38°
2026-05-07 14:58 40.63156 -74.00738 2988 ft 246 kts 38°
2026-05-07 14:58 40.64393 -73.99290 2966 ft 229 kts 38°
2026-05-07 14:58 40.65547 -73.97940 2962 ft 208 kts 37°
2026-05-07 14:58 40.66606 -73.96868 2969 ft 182 kts 30°
2026-05-07 14:59 40.67635 -73.96000 2896 ft 174 kts 28°
2026-05-07 14:59 40.68652 -73.95133 2914 ft 173 kts 30°
2026-05-07 14:59 40.69631 -73.94240 2883 ft 166 kts 34°
2026-05-07 14:59 40.70421 -73.93161 2688 ft 162 kts 43°
2026-05-07 15:00 40.71184 -73.92073 2435 ft 160 kts 42°
2026-05-07 15:00 40.71881 -73.90929 2165 ft 161 kts 57°
2026-05-07 15:00 40.72161 -73.89506 1948 ft 159 kts 73°
2026-05-07 15:00 40.72373 -73.88155 1740 ft 140 kts 70°
2026-05-07 15:01 40.72592 -73.86919 1531 ft 136 kts 70°
2026-05-07 15:01 40.72798 -73.85704 1363 ft 135 kts 70°
2026-05-07 15:01 40.73073 -73.84524 1161 ft 134 kts 57°
2026-05-07 15:01 40.73765 -73.83828 972 ft 127 kts 17°
2026-05-07 15:02 40.74604 -73.83493 728 ft 125 kts
2026-05-07 15:02 40.75471 -73.83504 632 ft 125 kts 346°
2026-05-07 15:02 40.76246 -73.84012 422 ft 127 kts 322°
2026-05-07 15:02 40.76814 -73.84917 233 ft 127 kts 306°
2026-05-07 15:03 40.77284 -73.85871 38 ft 123 kts 304°
2026-05-07 15:03 40.77714 -73.86762 19 ft 93 kts 303°
2026-05-07 15:03 40.77897 -73.87155 20 ft 22 kts 303°
2026-05-07 15:03 40.77926 -73.87249 20 ft 4 kts 309°
2026-05-07 15:04 40.77963 -73.87304 20 ft 18 kts 310°
2026-05-07 15:04 40.78047 -73.87477 19 ft 18 kts 298°
2026-05-07 15:04 40.78063 -73.87538 20 ft 19 kts 270°
2026-05-07 15:04 40.77995 -73.87668 22 ft 17 kts 213°
2026-05-07 15:05 40.77889 -73.87759 26 ft 19 kts 208°
2026-05-07 15:05 40.77773 -73.87856 26 ft 20 kts 212°
2026-05-07 15:05 40.77651 -73.87957 26 ft 22 kts 212°
2026-05-07 15:05 40.77520 -73.88065 25 ft 23 kts 212°
2026-05-07 15:06 40.77396 -73.88167 25 ft 15 kts 212°
2026-05-07 15:06 40.77309 -73.88238 26 ft 10 kts 211°
2026-05-07 15:06 40.77287 -73.88324 25 ft 11 kts 271°
2026-05-07 15:06 40.77287 -73.88383 24 ft 6 kts 291°
2026-05-07 15:07 40.77308 -73.88387 24 ft 2 kts
2026-05-07 15:07 40.77322 -73.88383 24 ft 0 kts
2026-05-07 15:07 40.77331 -73.88381 24 ft 0 kts
2026-05-07 15:07 40.77335 -73.88380 24 ft 0 kts
2026-05-07 15:12 40.77334 -73.88380 24 ft 0 kts
2026-05-07 15:13 40.77335 -73.88380 24 ft 0 kts
2026-05-07 15:14 40.77334 -73.88380 24 ft 0 kts
2026-05-07 15:15 40.77335 -73.88380 24 ft 0 kts
2026-05-07 15:15 40.77334 -73.88380 24 ft 0 kts